This is the latest recevied weather packets stored in our database for station/object KC9EGS. If no packets are shown the sender has not sent any weather packets the latest 10 day(s).
| Time | Temp. | Humidity | Pressure | Rain* | Wind** | Luminosity | Snow |
|---|---|---|---|---|---|---|---|
| 1777943121 | 10° C | 42% | 994.4 hPa | 0 mm | - | - | - |
| 1777942515 | 10.56° C | 41% | 994 hPa | 0 mm | - | - | - |
| 1777941921 | 11.11° C | 40% | 994 hPa | 0 mm | - | - | - |
| 1777941615 | 11.11° C | 41% | 993.7 hPa | 0 mm | - | - | - |
| 1777941320 | 11.11° C | 40% | 993.7 hPa | 0 mm | - | - | - |
| 1777940717 | 11.67° C | 39% | 993.2 hPa | 0 mm | - | - | - |
| 1777940121 | 12.22° C | 38% | 993.2 hPa | 0 mm | - | - | - |
| 1777939816 | 12.22° C | 38% | 993.2 hPa | 0 mm | - | - | - |
| 1777939522 | 12.22° C | 39% | 993.2 hPa | 0 mm | - | - | - |
| 1777938916 | 12.78° C | 37% | 992.8 hPa | 0 mm | - | - | - |
| 1777938321 | 12.78° C | 37% | 992.8 hPa | 0 mm | - | - | - |
| 1777938016 | 12.78° C | 36% | 992.6 hPa | 0 mm | - | - | - |
| 1777937722 | 13.33° C | 35% | 992.6 hPa | 0 mm | - | - | - |
| 1777937115 | 13.89° C | 37% | 992.3 hPa | 0 mm | - | - | - |
| 1777936521 | 14.44° C | 35% | 992.3 hPa | 0 mm | - | - | - |
| 1777936215 | 14.44° C | 34% | 992 hPa | 0 mm | - | - | - |
| 1777935921 | 15° C | 34% | 992 hPa | 0 mm | - | - | - |
| 1777935317 | 15° C | 35% | 991.7 hPa | 0 mm | - | - | - |
| 1777934721 | 15° C | 35% | 991.7 hPa | 0 mm | - | - | - |
| 1777934415 | 15° C | 35% | 991.4 hPa | 0 mm | - | - | - |
| 1777934121 | 15° C | 35% | 991.4 hPa | 0 mm | - | - | - |
| 1777933515 | 15.56° C | 34% | 990.8 hPa | 0 mm | - | - | - |
| 1777932921 | 16.11° C | 28% | 990.8 hPa | 0 mm | - | - | - |
| 1777932615 | 16.11° C | 29% | 990.5 hPa | 0 mm | - | - | - |
| 1777932320 | 16.11° C | 32% | 990.5 hPa | 0 mm | - | - | - |
* Rain latest hour (hover to see other rain measurements)
** Current wind speed in m/s (hover to see current wind gust speed)